www.pogodaiklimat.ru

Погода и климат >> Архив погоды >> Россия >> Приморский край >> Малая Кема


ПОГОДА в Малой Кеме

  • Прогноз погоды в Малой Кеме
  • Монитор погоды в Малой Кеме

АРХИВ ПОГОДЫ в Малой Кеме

Время (UTC), дата Ветер
(напр.,м/с)
 
Видим.   Явления Облачность Т
(С)
Тd
(С)
f
(%)
Тe
(С)
Тes
(С)
Комфортность P
(гПа)
Po
(гПа)
Тmin
(С)
Tmax
(С)
R
(мм)
R24
(мм)
S
(см)
06 19.04 З 5 н/о н/о +8.7 -13.0 20 +6 1007.2 1005.3
09 19.04 З 4
{12}
н/о н/о +7.3 -12.5 23 +5 +5 1010.0 1008.0 +9.9
12 19.04 штиль 0 н/о н/о +4.1 -11.5 31 +4 1011.3 1009.3
15 19.04 З 1 н/о н/о +2.7 -8.6 43 +2 1011.3 1009.3
18 19.04 СЗ 3 н/о н/о +3.4 -8.0 43 0 1011.3 1009.3
21 19.04 З 3 н/о н/о +2.7 -6.8 50 -1 -1 1010.5 1008.4 +1.5
00 20.04 СЗ 3 н/о н/о +7.8 -8.7 30 +6 1011.3 1009.3
03 20.04 Ю 6 н/о н/о +7.3 -5.1 41 +4 1011.3 1009.3
06 20.04 ЮВ 3 н/о н/о +6.0 -2.6 54 +3 1012.7 1010.7
09 20.04 В 2 н/о н/о +3.5 -0.1 77 +1 +1 1012.7 1010.7 +9.5
12 20.04 С 1 н/о н/о +0.3 -1.5 88 -2 1015.3 1013.3
15 20.04 штиль 0 н/о н/о -2.4 -4.9 83 -3 1014.0 1012.0
18 20.04 СЗ 1 н/о н/о -1.5 -4.0 83 -4 1012.7 1010.7
21 20.04 З 1 н/о н/о +0.2 -3.3 77 -2 -2 1011.8 1009.8 -2.8
00 21.04 Ю 2 н/о н/о +5.0 -2.6 58 +3 1011.3 1009.3
03 21.04 Ю 4 н/о н/о +4.3 -0.1 73 0 1010.0 1008.0
06 21.04 ЮВ 2 н/о н/о +5.1 +0.1 70 +3 1007.3 1005.3
09 21.04 З 3
{11}
н/о н/о +5.5 -0.3 66 +2 +2 1007.3 1005.3 +9.8
12 21.04 штиль 0 н/о н/о +0.8 -1.0 88 -0 1010.0 1008.0
15 21.04 штиль 0 н/о н/о +0.1 -2.8 81 -1 1012.7 1010.7
18 21.04 штиль 0 н/о н/о -2.2 -5.7 77 -3 1014.0 1012.0
21 21.04 штиль 0 н/о н/о -2.1 -6.6 71 -3 1015.3 1013.3 -4.1
00 22.04 ЮВ 1 н/о н/о +6.3 -5.1 44 +6 1016.7 1014.7
03 22.04 Ю 6 н/о н/о +7.9 -2.4 48 +4 1015.3 1013.3
06 22.04 ЮЗ 7 н/о н/о +10.9 -6.9 28 +8 1015.2 1013.3
09 22.04 ЮЗ 8-16
{16}
н/о н/о +9.2 -7.9 29 +6 +6 1015.3 1013.3 +13.3
12 22.04 З 2 н/о н/о +3.4 -5.5 52 +1 1016.7 1014.7
15 22.04 штиль 0 н/о н/о +0.5 -9.8 46 0 1018.0 1016.0
21 22.04 С 1 н/о н/о +1.2 -5.8 60 -0 -0 1015.4 1013.4 -0.8
00 23.04 ЮЗ 1 н/о н/о +3.7 -0.5 74 +2 1015.3 1013.3
03 23.04 Ю 4 н/о н/о +5.9 -0.2 65 +2 1012.7 1010.7
06 23.04 ЮЗ 3 н/о н/о +5.5 +2.7 82 +2 1010.0 1008.0
09 23.04 ЮЗ 3 н/о н/о +4.8 +2.7 86 +1 +1 1008.7 1006.7 +8.6
12 23.04 СЗ 1 н/о н/о +3.4 +2.1 91 +2 1008.7 1006.7
15 23.04 ЮВ 1 н/о н/о +1.0 +0.1 94 -1 1007.3 1005.3
18 23.04 С 2 н/о н/о +2.2 +1.8 97 -1 1007.3 1005.3
21 23.04 штиль 0 н/о н/о +1.7 +1.0 95 0 0 1006.9 1004.9 -0.2
00 24.04 ЮВ 1 н/о н/о +5.7 +2.3 79 +5 1008.7 1006.7
03 24.04 З 1 н/о н/о +7.2 +2.7 73 +6 1007.3 1005.3
06 24.04 В 1 н/о н/о +9.3 +6.6 83 +9 1008.6 1006.7
09 24.04 З 3 н/о н/о +7.9 +4.1 77 +5 +5 1008.7 1006.7 +13.4 2
12 24.04 З 2 н/о н/о +5.6 +2.4 80 +3 1008.7 1006.7
15 24.04 З 2 н/о н/о +5.5 +0.5 70 +3 1008.7 1006.7
18 24.04 З 2 н/о н/о +1.6 -1.5 80 -2 1008.7 1006.7
21 24.04 С 1 н/о н/о +5.1 -3.7 53 +4 +4 1008.0 1005.9 +0.5 0.3
00 25.04 СЗ 5-12
{13}
н/о н/о +11.0 -4.0 35 +9 +9 1008.2 1006.2
03 25.04 Ю 3 н/о н/о +7.9 -0.3 56 +6 1011.3 1009.3
06 25.04 СВ 9 н/о н/о +4.0 +1.4 83 -3 1012.7 1010.7
09 25.04 СВ 3
{15}
н/о н/о +2.9 +0.3 83 -1 -1 1016.7 1014.7 +13.7
12 25.04 СВ 2 н/о н/о +2.9 -0.9 76 0 1019.3 1017.3
15 25.04 В 1 н/о н/о +2.5 -1.5 75 +1 1020.7 1018.7
18 25.04 СВ 1 н/о н/о +1.9 +0.1 88 0 1019.3 1017.3
21 25.04 С 2 н/о н/о +2.2 -1.5 76 -1 -1 1018.9 1016.8 +1.6
00 26.04 В 5 н/о н/о +4.7 -2.4 60 0 1020.7 1018.7
03 26.04 СВ 5 н/о н/о +5.3 -3.5 53 +1 1019.3 1017.3

 

Местоположение метеостанции Малая Кема (Приморский край, Россия): широта 45.40 долгота 137.10 высота над уровнем моря 16 м.

В архиве по умолчанию представлена погода в Малой Кеме за последнюю неделю. Архивные данные за месяц целиком и за предыдущие месяцы, начиная с января 2011 года, Вы можете получить, выбрав интересующий диапазон дат из раскрывающегося списка и нажав кнопку "Ввод!".


*Определитесь, кто Вы:
робот инопланетянин человек

Внимание! Время в таблицах - всемирное. Для получения местного времени необходимо прибавить поправку, которая равна 10 ч.

Смотрите также архив погоды в соседних городах и на ближайших метеорологических станциях:

Погода в Тернее (Приморский край, Россия) (59 км)
Погода в Мельничном (Приморский край, Россия) (125 км)
Погода в Рудной Пристани (Приморский край, Россия) (154 км)
Погода в Сосуново (Приморский край, Россия) (158 км)
Погода в Глубинном (Приморский край, Россия) (158 км)
Погода в Богополе (Приморский край, Россия) (185 км)
Погода в Красном Яре (Приморский край, Россия) (188 км)
Погода в Кавалерово (Приморский край, Россия) (209 км)
Погода в Малиново (Приморский край, Россия) (226 км)
Погода в Ольге (Приморский край, Россия) (232 км)

Пояснения к столбцам:

Ветер - указаны скорость ветра в м/с - средняя за 10 мин, порывы в срок и между сроками (в фигурных скобках) и направление, откуда дует ветер: С - северный, СВ - северо-восточный, В - восточный, ЮВ - юго-восточный, Ю - южный, ЮЗ - юго-западный, З - западный, СЗ - северо-западный.
Видимость - горизонтальная дальность видимости в метрах или километрах. При видимости от 1 до 10 км при отсутствии осадков обычно наблюдается дымка, при ухудшении видимости до 1 км и менее - туман. В сухую погоду видимость может ухудшаться дымом, пылью или мглою.
Явления - указаны атмосферные явления, наблюдавшиеся в срок или в последний час перед сроком; фигурными скобками обозначены явления, наблюдавшиеся между сроками (за 1-3 часа до срока); квадратными скобками обозначены град или гололедные отложения с указанием их диаметра в мм.
Облачность - указаны через наклонную черту общая и нижняя облачность в баллах и высота нижней границы облаков в метрах; квадратными скобками обозначены формы облаков: Ci - перистые, Cs - перисто-слоистые, Cc - перисто-кучевые, Ac - высококучевые, As - высокослоистые, Sc - слоисто-кучевые, Ns - слоисто-дождевые, Cu - кучевые, Cb - кучево-дождевые. Подробнее классификацию облаков см. в Атласе облаков (PDF).
T - Температура воздуха - температура, измеренная на высоте 2 м над землей.
Td - Температура точки росы - температура, при понижении до которой содержащийся в воздухе водяной пар достигнет насыщения.
f - Относительная влажность воздуха - влажноcть воздуха, измеренная на высоте 2 м над землей.
Te - Эффективная температура - температура, которую ощущает одетый по сезону человек в тени. Характеристика душности погоды. При расчете учитывается влияние влажности воздуха и скорости ветра на теплоощущения человека.
Tes - Эффективная температура на солнце - температура, которую ощущает человек, с поправкой на солнечный нагрев. Характеристика знойности погоды. Зависит от высоты солнца над горизонтом, облачности и скорости ветра. Ночью, в пасмурную погоду, а также при ветре 12 м/с и более поправка равна нулю.
P - Атмосферное давление - приведенное к уровню моря атмосферное давление.
Po - Атмосферное давление - измеренное на уровне метеостанции атмосферное давление.
Tmin - Минимальная температура - минимум температуры воздуха на высоте 2 м над землей.
Tmax - Максимальная температура - максимум температуры воздуха на высоте 2 м над землей.
R - Количество осадков - Количество выпавших осадков за период времени, мм. При наведении курсора мыши на число - период времени, за который выпало указанное количество осадков.
R24 - Количество осадков - Количество выпавших осадков за 24 часа, мм.
S - Снежный покров - Высота снежного покрова, см. При наведении курсора мыши на число - состояние снежного покрова и степень покрытия местности в баллах.